DW2489 Weather Reports


Display with metric or nautical units.
time (UTC)temp
F
wind
direction
speed
MPH
gust
MPH
rain 1hr
in
rain 24hr
in
rain mn
in
humidity
%
barometer
mb
20260505024755 55 215 0.0 0.0 0.00 0.00 0.00 1006.1
20260505024222 55 215 0.0 0.0 0.00 0.00 0.00 1006.1
20260505023720 56 215 0.0 0.0 0.00 0.00 0.00 1006.1
20260505023219 56 215 0.0 0.0 0.00 0.00 0.00 1006.1
20260505022718 56 215 0.0 0.0 0.00 0.00 0.00 1006.1
20260505022216 57 215 0.0 0.0 0.00 0.00 0.00 1006.4
20260505021715 57 215 0.0 0.0 0.00 0.00 0.00 1006.4
20260505021213 58 215 0.0 0.0 0.00 0.00 0.00 1006.4
20260505020641 58 215 0.0 0.0 0.00 0.00 0.00 1006.4
20260505020138 59 215 0.0 0.0 0.00 0.00 0.00 1006.4
20260505015636 59 215 0.0 0.0 0.00 0.00 0.00 1006.4
20260505015102 59 215 0.0 2.0 0.00 0.00 0.00 1006.4
20260505014602 60 215 0.0 2.0 0.00 0.00 0.00 1006.4
20260505014100 60 215 0.0 2.0 0.00 0.00 0.00 1006.4
20260505013558 60 215 0.0 3.0 0.00 0.00 0.00 1006.4
20260505013056 60 215 0.0 3.0 0.00 0.00 0.00 1006.1
20260505012555 60 215 0.0 3.0 0.00 0.00 0.00 1006.1
20260505012054 60 215 0.0 3.0 0.00 0.00 0.00 1006.1
20260505011521 60 215 0.0 3.0 0.00 0.00 0.00 1006.1
20260505011020 60 215 0.0 4.0 0.00 0.00 0.00 1005.8
20260505010447 60 215 0.0 4.0 0.00 0.00 0.00 1005.8
20260505005914 60 215 0.0 4.0 0.00 0.00 0.00 1005.8
20260505005341 60 278 0.0 4.0 0.00 0.00 0.00 1005.8
20260505004840 61 278 1.0 4.0 0.00 0.00 0.00 1005.8
20260505004338 61 278 0.0 3.0 0.00 0.00 0.00 1005.8
20260505003837 61 278 0.0 2.0 0.00 0.00 0.00 1005.8
20260505003336 61 278 0.0 0.0 0.00 0.00 0.00 1005.8
20260505002803 62 278 0.0 0.0 0.00 0.00 0.00 1005.8
20260505002304 62 278 0.0 0.0 0.00 0.00 0.00 1005.8
20260505001729 63 278 0.0 0.0 0.00 0.00 0.00 1005.8
20260505001228 63 278 0.0 0.0 0.00 0.00 0.00 1005.8
20260505000727 64 278 0.0 0.0 0.00 0.00 0.00 1005.8
20260505000226 65 278 0.0 0.0 0.00 0.00 0.00 1005.4
20260504235725 65 278 0.0 0.0 0.00 0.00 0.00 1005.4
20260504235222 66 278 0.0 0.0 0.00 0.00 0.00 1005.4
20260504234720 67 278 0.0 0.0 0.00 0.00 0.00 1005.4
20260504234218 67 278 0.0 0.0 0.00 0.00 0.00 1005.1
20260504233716 68 278 0.0 0.0 0.00 0.00 0.00 1005.1
20260504233142 68 278 0.0 2.0 0.00 0.00 0.00 1005.1
20260504232641 69 278 0.0 3.0 0.00 0.00 0.00 1005.1
20260504232140 69 278 0.0 3.0 0.00 0.00 0.00 1005.1
20260504231638 70 285 0.0 3.0 0.00 0.00 0.00 1005.1
20260504231136 70 285 0.0 3.0 0.00 0.00 0.00 1005.1
20260504230635 70 285 0.0 3.0 0.00 0.00 0.00 1004.7
20260504230134 71 285 0.0 2.0 0.00 0.00 0.00 1004.7
20260504225633 71 285 0.0 4.0 0.00 0.00 0.00 1004.7
20260504225132 71 285 0.0 4.0 0.00 0.00 0.00 1004.7
20260504224631 71 213 1.0 4.0 0.00 0.00 0.00 1004.7
20260504224129 72 210 0.0 6.0 0.00 0.00 0.00 1004.7
20260504223556 72 210 1.0 7.0 0.00 0.00 0.00 1004.7
20260504223055 72 276 3.0 7.0 0.00 0.00 0.00 1004.7
20260504222554 72 258 1.0 10.0 0.00 0.00 0.00 1004.7
20260504222020 72 258 3.0 10.0 0.00 0.00 0.00 1004.7
20260504221519 72 173 1.0 9.0 0.00 0.00 0.00 1004.7
20260504221018 72 223 4.0 9.0 0.00 0.00 0.00 1004.7
20260504220517 73 221 4.0 9.0 0.00 0.00 0.00 1004.7
20260504220016 73 256 4.0 9.0 0.00 0.00 0.00 1004.7
20260504215515 73 229 2.0 10.0 0.00 0.00 0.00 1004.7
20260504214943 74 229 5.0 10.0 0.00 0.00 0.00 1004.7
20260504214442 74 250 3.0 12.0 0.00 0.00 0.00 1004.7
20260504213940 74 205 2.0 12.0 0.00 0.00 0.00 1004.7
20260504213439 75 235 4.0 10.0 0.00 0.00 0.00 1004.7
20260504212906 75 269 6.0 10.0 0.00 0.00 0.00 1004.7
20260504212333 74 230 4.0 13.0 0.00 0.00 0.00 1004.7
20260504211832 74 269 5.0 13.0 0.00 0.00 0.00 1004.7
20260504211329 74 240 7.0 13.0 0.00 0.00 0.00 1004.7
20260504210826 74 234 4.0 10.0 0.00 0.00 0.00 1004.7
20260504210325 73 247 4.0 10.0 0.00 0.00 0.00 1004.7
20260504205824 73 259 5.0 16.0 0.00 0.00 0.00 1004.7
20260504205323 73 225 4.0 16.0 0.00 0.00 0.00 1004.7
20260504204822 73 251 6.0 13.0 0.00 0.00 0.00 1004.7
20260504204319 72 255 4.0 10.0 0.00 0.00 0.00 1004.7
20260504203817 72 253 4.0 13.0 0.00 0.00 0.00 1005.1
20260504203316 72 226 4.0 13.0 0.00 0.00 0.00 1005.1
20260504202814 72 232 6.0 13.0 0.00 0.00 0.00 1005.1
20260504202209 73 286 6.0 13.0 0.00 0.00 0.00 1005.1
20260504201707 73 242 3.0 12.0 0.00 0.00 0.00 1005.1
20260504201206 73 250 6.0 12.0 0.00 0.00 0.00 1005.1
20260504200633 73 247 4.0 13.0 0.00 0.00 0.00 1005.1
20260504200131 73 235 6.0 16.0 0.00 0.00 0.00 1005.1
20260504195558 73 277 7.0 16.0 0.00 0.00 0.00 1005.1
20260504195056 73 258 4.0 13.0 0.00 0.00 0.00 1005.4
20260504194555 72 260 7.0 16.0 0.00 0.00 0.00 1005.4
20260504194053 72 253 6.0 16.0 0.00 0.00 0.00 1005.4
20260504193551 72 234 6.0 18.0 0.00 0.00 0.00 1005.4
20260504193049 72 268 7.0 18.0 0.00 0.00 0.00 1005.4
20260504192548 71 245 8.0 18.0 0.00 0.00 0.00 1005.4
20260504192047 71 254 6.0 15.0 0.00 0.00 0.00 1005.4
20260504191544 71 232 4.0 13.0 0.00 0.00 0.00 1005.4
20260504191011 71 247 6.0 16.0 0.00 0.00 0.00 1005.4
20260504190509 70 260 5.0 19.0 0.00 0.00 0.00 1005.8
20260504190008 71 248 7.0 19.0 0.00 0.00 0.00 1005.8
20260504185434 71 205 8.0 19.0 0.00 0.00 0.00 1005.8
20260504184932 71 237 3.0 19.0 0.00 0.00 0.00 1005.8
20260504184431 71 229 7.0 19.0 0.00 0.00 0.00 1005.8
20260504183929 70 217 6.0 15.0 0.00 0.00 0.00 1005.8
20260504183428 70 245 4.0 16.0 0.00 0.00 0.00 1005.8
20260504182927 70 221 6.0 16.0 0.00 0.00 0.00 1005.8
20260504182426 70 240 5.0 16.0 0.00 0.00 0.00 1005.8
20260504181853 70 274 6.0 15.0 0.00 0.00 0.00 1005.8
20260504181321 70 207 7.0 15.0 0.00 0.00 0.00 1005.8
20260504180818 69 237 3.0 15.0 0.00 0.00 0.00 1005.8
20260504180317 69 243 4.0 15.0 0.00 0.00 0.00 1005.8
20260504175814 69 227 6.0 15.0 0.00 0.00 0.00 1005.8
20260504175313 69 279 4.0 15.0 0.00 0.00 0.00 1005.8
20260504174811 69 233 7.0 18.0 0.00 0.00 0.00 1006.1
20260504174308 70 201 4.0 18.0 0.00 0.00 0.00 1006.1
20260504173805 70 235 7.0 18.0 0.00 0.00 0.00 1006.1
20260504173304 70 229 4.0 15.0 0.00 0.00 0.00 1006.1
20260504172803 70 233 6.0 13.0 0.00 0.00 0.00 1006.1
20260504172303 70 242 5.0 16.0 0.00 0.00 0.00 1006.4
20260504171800 70 226 7.0 16.0 0.00 0.00 0.00 1006.4
20260504171257 69 246 4.0 22.0 0.00 0.00 0.00 1006.4
20260504170754 69 278 8.0 22.0 0.00 0.00 0.00 1006.4
20260504170120 69 211 9.0 22.0 0.00 0.00 0.00 1006.4
20260504150741 63 272 5.0 9.0 0.00 0.00 0.00 1007.5
20260504150239 62 277 6.0 9.0 0.00 0.00 0.00 1007.5
20260504141050 62 196 5.0 15.0 0.00 0.00 0.00 1007.8
20260504140549 61 191 4.0 9.0 0.00 0.00 0.00 1007.8
20260504130457 52 267 0.0 3.0 0.00 0.00 0.00 1008.5
20260504110645 43 221 2.0 6.0 0.00 0.00 0.00 1009.1
20260504110144 42 220 2.0 6.0 0.00 0.00 0.00 1008.8
20260504100522 39 320 0.0 0.0 0.00 0.00 0.00 1008.8
20260504081739 45 271 0.0 0.0 0.00 0.00 0.00 1009.1
20260504081206 45 271 0.0 0.0 0.00 0.00 0.00 1009.1
20260504080705 45 270 0.0 0.0 0.00 0.00 0.00 1009.1
20260504080202 45 298 0.0 0.0 0.00 0.00 0.00 1009.1
20260504070306 46 326 0.0 0.0 0.00 0.00 0.00 1009.1
20260504060147 47 219 0.0 2.0 0.00 0.00 0.00 1009.1
20260504050457 46 198 0.0 4.0 0.00 0.00 0.00 1009.8
20260504045955 46 198 0.0 4.0 0.00 0.00 0.00 1009.5
20260504045454 46 199 0.0 3.0 0.00 0.00 0.00 1009.5
20260504044851 46 198 0.0 3.0 0.00 0.00 0.00 1009.5
20260504044350 46 174 0.0 4.0 0.00 0.00 0.00 1009.5
20260504043814 46 173 0.0 4.0 0.00 0.00 0.00 1009.5
20260504043312 46 173 0.0 3.0 0.00 0.00 0.00 1009.5
20260504042808 46 173 0.0 3.0 0.00 0.00 0.00 1009.8
20260504042306 45 173 0.0 3.0 0.00 0.00 0.00 1009.8
20260504041805 45 173 0.0 3.0 0.00 0.00 0.00 1009.8
20260504041304 45 173 0.0 3.0 0.00 0.00 0.00 1009.8
20260504040803 45 173 0.0 4.0 0.00 0.00 0.00 1009.8
20260504040301 44 173 0.0 4.0 0.00 0.00 0.00 1009.8
20260504035759 44 173 2.0 4.0 0.00 0.00 0.00 1009.8
20260504035258 43 173 0.0 3.0 0.00 0.00 0.00 1009.8
20260504034725 43 173 0.0 0.0 0.00 0.00 0.00 1009.8
20260504034223 43 173 0.0 0.0 0.00 0.00 0.00 1009.8
20260504033722 42 173 0.0 0.0 0.00 0.00 0.00 1009.8
20260504033149 42 173 0.0 2.0 0.00 0.00 0.00 1009.8
20260504032615 42 173 0.0 2.0 0.00 0.00 0.00 1009.5
20260504032113 42 173 0.0 0.0 0.00 0.00 0.00 1009.5
20260504031611 43 173 0.0 0.0 0.00 0.00 0.00 1009.5
20260504031109 43 173 0.0 0.0 0.00 0.00 0.00 1009.5
20260504030607 43 173 0.0 0.0 0.00 0.00 0.00 1009.5
20260504030106 43 173 0.0 0.0 0.00 0.00 0.00 1009.5
20260504025604 44 173 0.0 0.0 0.00 0.00 0.00 1009.5
20260504025031 44 173 0.0 0.0 0.00 0.00 0.00 1009.5